COSMOS 1275 DEB

Satellite information

Favourite Embed

Satellite Type and Status

DEBRISIN ORBIT

Key statistics

Satellite COSMOS 1275 DEB at a glance.

Uptime

16044

Days in orbit

Revolutions

≈ 14.2

Per day

Orbit

LEO

Low Earth Orbit

Inclination

82.8

Latest

Satellite identification and parameters

Extended collection of information and parameters for COSMOS 1275 DEB.

Object identification

Identified? True

Debris? True

Object name: COSMOS 1275 DEB

International designator: 1981-053UD

Object number (NORAD): 42213

Object ID (CCSDS): 42213

Country: COMMONWEALTH OF INDEPENDENT STATES (CIS)

Current information (Y/N): Y

RCS size: SMALL

Orbital parameters

Period: 101.382 minutes

Inclination: 82.8188 deg

SMA: 7202.224 km

Apoapsis: 854.813 km

Periapsis: 793.365 km

RAAN: 50.006 deg

Eccentricy: 0.0042659

Argument of periapsis: 286.7649 deg

Mean anomaly: 72.8853 deg

Mean motion: 14.20374497 rev/day

Mean motion (dot): 0.00005591 rev/day2

B* drag term: 0.0025795 1/REarth

Two-line elements (TLE)

Creation date: May 2, 2025, 2:33 a.m.

Reference frame: TEME

Reference center: EARTH

Epoch: May 1, 2025, 1:31 a.m. UTC

TLE line 0: 0 COSMOS 1275 DEB

TLE line 1: 1 42213U 81053UD 25121.06364865 .00005591 00000-0 25795-2 0 9998

TLE line 2: 2 42213 82.8188 50.0060 0042659 286.7649 72.8853 14.20374497145541

Live tracking on map

Real-time ground track for satellite COSMOS 1275 DEB.

In-orbit conjunctions

A list of the most updated potential collisions computed for object COSMOS 1275 DEB.

Target Orbit TCA Probability of collision Miss distance Type
FENGYUN 1C DEB SSO 2024-11-14 20:37:28 0.0001591273 298.0 (m) DEBRIS
SL-3 R/B LEO 2024-10-19 02:39:30 0.0001301144 315.0 (m) ROCKET BODY

Associated space launch

Navigation satellite providing location information for the Tsiklon-B navigation system

COSMOS 1275 DEB was lifted into orbit during the mission ‘Kosmos-3M | Parus 27’, on board a Kosmos-3M space rocket.

The launch took place on June 4, 1981, 3:41 p.m. from 132/2.

For more information about the launch, click the button.

Launch to space Kosmos-3M | Parus 27
Kosmos-3M | Parus 27

Agency: N/A

Status: Launch Successful

Launch date: June 4, 1981, 3:41 p.m. UTC

Rocket: Kosmos-3M

Launch pad: 132/2

Location: Plesetsk Cosmodrome, Russian Federation

...

Latest news about this satellite

There are no fresh news available about this satellite. Check back as we update our databases every day.


Newsletter sign-up

Weekly statistics, charts and insights to help you stay on top of the space industry.